KB1JDX Weather Reports


time (UTC)temp
C
wind
direction
speed
KPH
gust
KPH
rain 1hr
cm
rain 24hr
cm
rain mn
cm
humidity
%
barometer
mb
20260831055218 18 192 0.0 0.0 0.00 0.00 0.00 100 1017.6
20260831053113 19 192 0.0 0.0 0.00 0.00 0.00 100 1017.5
20260831051218 19 192 0.0 0.0 0.00 0.00 0.00 100 1017.5
20260831045218 19 192 0.0 0.0 0.00 0.00 0.00 100 1017.3
20260831043113 20 192 0.0 0.0 0.00 0.00 0.00 100 1017.3
20260831041218 20 192 0.0 0.0 0.00 0.00 0.00 100 1017.3
20260831035218 20 192 0.0 0.0 0.00 0.00 0.00 100 1017.2
20260831033220 20 192 0.0 0.0 0.00 0.00 0.00 100 1017.1
20260831033113 20 192 0.0 0.0 0.00 0.00 0.00 100 1017.1
20260831031218 20 192 0.0 0.0 0.00 0.00 0.00 100 1017.2
20260831025218 21 193 0.0 0.0 0.00 0.00 0.00 100 1017.4
20260831023218 21 196 0.0 0.0 0.00 0.00 0.00 100 1017.2
20260831023113 21 196 0.0 0.0 0.00 0.00 0.00 100 1017.3
20260831021218 21 196 0.0 0.0 0.00 0.00 0.00 100 1016.9
20260831015218 21 196 0.0 0.0 0.00 0.00 0.00 100 1017.0
20260831013218 21 196 0.0 0.0 0.00 0.00 0.00 100 1017.0
20260831013113 21 196 0.0 0.0 0.00 0.00 0.00 100 1017.0
20260831011218 21 195 0.0 0.0 0.00 0.00 0.00 100 1017.0
20260831005218 22 208 0.0 0.0 0.00 0.00 0.00 100 1017.0
20260831003218 22 209 0.0 0.0 0.00 0.00 0.00 100 1017.1
20260831003113 22 208 0.0 0.0 0.00 0.00 0.00 100 1017.1
20260831001218 22 208 0.0 0.0 0.00 0.00 0.00 100 1016.9
20260830235218 22 208 0.0 11.3 0.00 0.00 0.00 100 1016.7
20260830233218 22 208 0.0 11.3 0.00 0.00 0.00 14 1016.7
20260830233113 22 208 0.0 11.3 0.00 0.00 0.00 15 1016.7
20260830231218 22 208 0.0 11.3 0.00 0.00 0.00 29 1016.6
20260830225218 23 209 0.0 0.0 0.00 0.00 0.00 39 1016.7
20260830223218 23 209 0.0 0.0 0.00 0.00 0.00 45 1016.6
20260830223113 23 209 0.0 0.0 0.00 0.00 0.00 45 1016.7
20260830221218 23 221 0.0 0.0 0.00 0.00 0.00 47 1016.9
20260830215218 23 220 0.0 17.7 0.00 0.00 0.00 50 1016.9
20260830213218 23 226 0.0 17.7 0.00 0.00 0.00 52 1016.8
20260830213113 23 226 0.0 17.7 0.00 0.00 0.00 52 1016.8
20260830211218 23 220 0.0 17.7 0.00 0.00 0.00 53 1016.9
20260830205218 24 203 0.0 16.1 0.00 0.00 0.00 54 1016.9
20260830203113 25 214 0.0 16.1 0.00 0.00 0.00 54 1017.0
20260830201218 25 220 8.0 16.1 0.00 0.00 0.00 55 1016.9
20260830195218 25 220 0.0 14.5 0.00 0.00 0.00 54 1017.3
20260830193220 26 219 0.0 14.5 0.00 0.00 0.00 52 1017.4
20260830193113 26 229 14.5 14.5 0.00 0.00 0.00 52 1017.4
20260830191218 26 204 0.0 14.5 0.00 0.00 0.00 50 1017.7
20260830183113 27 216 0.0 20.9 0.00 0.00 0.00 48 1018.2
20260830181218 27 209 0.0 20.9 0.00 0.00 0.00 48 1018.2
20260830175219 26 236 0.0 25.7 0.00 0.00 0.00 47 1018.5
20260830173218 27 213 0.0 25.7 0.00 0.00 0.00 47 1018.6
20260830173113 27 220 0.0 25.7 0.00 0.00 0.00 45 1018.8
20260830171219 27 225 0.0 25.7 0.00 0.00 0.00 47 1018.9
20260830165219 27 198 0.0 24.1 0.00 0.00 0.00 47 1019.1
20260830163219 27 206 0.0 24.1 0.00 0.00 0.00 47 1019.2
20260830163113 27 216 0.0 24.1 0.00 0.00 0.00 47 1019.2
20260830161218 26 204 0.0 24.1 0.00 0.00 0.00 47 1019.3
20260830155219 26 203 0.0 12.9 0.00 0.00 0.00 46 1019.6
20260830153218 25 217 3.2 12.9 0.00 0.00 0.00 44 1019.8
20260830153113 25 221 1.6 12.9 0.00 0.00 0.00 43 1019.8
20260830151218 25 190 0.0 12.9 0.00 0.00 0.00 42 1019.9
20260830145218 24 231 0.0 0.0 0.00 0.00 0.00 37 1020.2
20260830143221 23 142 0.0 0.0 0.00 0.00 0.00 22 1020.5
20260830143113 23 142 0.0 0.0 0.00 0.00 0.00 22 1020.5
20260830141218 21 142 0.0 0.0 0.00 0.00 0.00 11 1020.6
20260830135221 20 142 0.0 0.0 0.00 0.00 0.00 100 1020.9
20260830133218 19 142 0.0 0.0 0.00 0.00 0.00 100 1021.1
20260830133113 19 142 0.0 0.0 0.00 0.00 0.00 100 1021.1
20260830131218 18 142 0.0 0.0 0.00 0.00 0.00 100 1021.1
20260830130227 17 141 0.0 0.0 0.00 0.00 0.00 100 1021.5
20260830125217 17 141 0.0 0.0 0.00 0.00 0.00 100 1021.1
20260830123218 17 141 0.0 0.0 0.00 0.00 0.00 100 1021.5
20260830123113 16 141 0.0 0.0 0.00 0.00 0.00 100 1021.5
20260830121218 15 141 0.0 0.0 0.00 0.00 0.00 100 1021.6
20260830115218 14 141 0.0 0.0 0.00 0.00 0.00 100 1021.5
20260830113221 13 141 0.0 0.0 0.00 0.00 0.00 100 1021.5
20260830113113 13 141 0.0 0.0 0.00 0.00 0.00 100 1021.5
20260830111218 13 141 0.0 0.0 0.00 0.00 0.00 100 1021.5
20260830103113 13 141 0.0 0.0 0.00 0.00 0.00 100 1021.5
20260830101218 13 141 0.0 0.0 0.00 0.00 0.00 100 1021.8
20260830095220 12 141 0.0 0.0 0.00 0.00 0.00 100 1021.7
20260830093218 12 141 0.0 0.0 0.00 0.00 0.00 100 1021.7
20260830093113 12 141 0.0 0.0 0.00 0.00 0.00 100 1021.7
20260830091218 12 141 0.0 0.0 0.00 0.00 0.00 100 1021.7
20260830083113 13 141 0.0 0.0 0.00 0.00 0.00 100 1021.7
20260830075219 12 141 0.0 0.0 0.00 0.00 0.00 100 1022.2
20260830073113 12 141 0.0 0.0 0.00 0.00 0.00 100 1022.0
20260830065218 13 141 0.0 0.0 0.00 0.00 0.00 100 1021.9
20260830063218 13 141 0.0 0.0 0.00 0.00 0.00 100 1021.8
20260830063113 13 141 0.0 0.0 0.00 0.00 0.00 100 1021.7
20260830061219 13 141 0.0 0.0 0.00 0.00 0.00 100 1021.7